Volver al catálogo

METEOR 2-2

ActivoMeteoPO
NORAD 9661·PAYLOAD·🇷🇺 Russia

Lanzado Jan 6, 1977 desde Plesetsk Cosmodrome

Loading…

Próximos Pases (próximas 24 horas)

TLE

ActualizadoSource: Space-Track

Época: Sep 14, 2026, 14:12 UTC

1 09661U 77002A   26257.59228274  .00000005  00000-0 -48370-5 0  9992
2 09661  81.2685   8.0087 0011650 101.1841 259.0637 14.04242858542883

Sigue METEOR 2-2 en tiempo real con AllMySat

Download on the App Store